Location: Hac?musa Deresi
(39.1694°N, 32.2508°E)
Time: 11:50:29
(UTC+00:00)

Milstar 3 - Pass Details

Date: 22 April 2026
Orbit: 1097 x 5148 km, 28.2° (Epoch: 20 May)

Event Time Altitude Azimuth Distance (km) Brightness Sun altitude
Rises 19:15:51 0° 231° (SW) 4,258 5.9 -27.2°
Reaches altitude 10° 19:18:28 10° 223° (SW) 3,510 5.3 -27.6°
Enters shadow 19:24:36 37° 180° (S) 2,576 4.2 -28.4°
Exits shadow 19:41:39 - 93° (E) 6,236 6.3 -30.4°
Sets 19:47:34 0° 89° (E) 7,793 6.9 -31.1°
